Simultaneous Nadir Overpasses (SNOs) Predictions

Prediction of SNOs near US between AQUA and NPP Satellite Orbit:

Table of predicted SNOs near US for the next 10.0 days since TLE Epoch: 10/18/2019
Index Date (AQUA) Time (AQUA) AQUA Lat,Lon Date (NPP) Time (NPP) NPP Lat,Lon Distance(km) Time Diff (sec)
1 10/21/2019 08:35:00 20.00,-101.91 10/21/2019 08:26:40 18.54,-102.43 171.89 500
2 10/21/2019 10:11:47 27.59,-124.80 10/21/2019 10:05:33 27.73,-125.49 69.62 374
3 10/24/2019 07:18:40 49.94, -76.00 10/24/2019 07:20:26 50.38, -78.21 164.56 106
4 10/24/2019 08:57:33 49.94,-100.72 10/24/2019 09:01:54 50.49,-103.53 209.00 261
5 10/26/2019 18:16:50 50.00, -80.21 10/26/2019 18:10:43 49.72, -81.75 114.74 367
6 10/26/2019 19:55:43 49.99,-104.93 10/26/2019 19:52:11 49.61,-107.07 159.97 212
7 10/26/2019 21:30:52 36.63,-125.00 10/26/2019 21:29:49 36.17,-127.56 235.25 63




NCC Satellite Simultaneous Nadir Overpasses (SNOs) Prediction Service
